Flag for Belarus Weather past 2 weeks in Barysaw, Belarus

23 °F

Ice fog.

Feels Like: 18 °F
Forecast: 21 / 29 °F
Wind: 3 mph from South

Location: Minsk

Current Time: Nov 27, 2015 at 10:51:18 PM

Latest Report: Nov 27, 2015 at 10:30 PM

Visibility: 3 mi

Pressure: 30.15 "Hg

Humidity: 93%

Dew point: 21 °F

Location of BarysawLocation

Historic Weather in Barysaw — Graph


Barysaw temperature yesterday

Maximum temperature yesterday: 28 °F (at 12:00 AM)
Minimum temperature yesterday: 16 °F (at 10:30 PM)
Average temperature yesterday: 25 °F

Past Weeks' High & Low Weather Summary

High50 °F (Nov 18, 8:00 PM)100% (Nov 13, 6:00 PM)30.18 "Hg (Nov 13, 6:00 PM)
Low14 °F (Nov 27, 3:00 AM)64% (Nov 26, 3:30 AM)29.27 "Hg (Nov 20, 10:00 PM)
Average36 °F92%29.78 "Hg
* Reported Nov 12 9:00 PM — Nov 27 9:30 PM, Barysaw, Weather by CustomWeather, © 2015

Note: Actual official high and low records may vary slightly from our data, if they occured in-between our weather recording intervals... More about our weather records


Barysaw weather history for previous 24 hours

Time TempWeatherWind HumidityBarometerVisibility
9:30 PM
Fri, Nov 27
25 °FIce fog.1 mph86%30.15 "Hg3 mi
9:00 PM25 °FIce fog.1 mph93%30.15 "Hg3 mi
8:30 PM25 °FClear.3 mph93%30.15 "Hg4 mi
8:00 PM25 °FClear.6 mph93%30.15 "Hg4 mi
7:30 PM25 °FClear.6 mph93%30.15 "Hg5 mi
7:00 PM25 °FClear.6 mph93%30.15 "Hg10 mi
6:30 PM27 °FPassing clouds.3 mph86%30.15 "HgN/A
6:00 PM27 °FPassing clouds.6 mph86%30.15 "HgN/A
5:30 PM27 °FPassing clouds.3 mph86%30.15 "HgN/A
5:00 PM27 °FPassing clouds.3 mph86%30.15 "HgN/A
4:30 PM28 °FPassing clouds.6 mph80%30.15 "HgN/A
4:00 PM28 °FPassing clouds.3 mph80%30.18 "HgN/A
3:30 PM28 °FPassing clouds.6 mph80%30.18 "HgN/A
3:00 PM28 °FPassing clouds.6 mph80%30.18 "HgN/A
2:30 PM28 °FPassing clouds.6 mph80%30.18 "HgN/A
2:00 PM28 °FPassing clouds.6 mph80%30.18 "HgN/A
1:30 PM27 °FPassing clouds.6 mph86%30.18 "HgN/A
1:00 PM27 °FPassing clouds.6 mph86%30.18 "HgN/A
12:30 PM25 °FPassing clouds.6 mph86%30.18 "HgN/A
12:00 PM25 °FPassing clouds.3 mph86%30.18 "HgN/A
11:30 AM23 °FClear.3 mph93%30.18 "Hg6 mi
11:00 AM21 °FClear.1 mph93%30.18 "Hg4 mi
9:30 AM19 °FClear.No wind93%30.18 "Hg10 mi
9:00 AM19 °FPassing clouds.3 mph93%30.15 "HgN/A
8:30 AM18 °FPassing clouds.3 mph100%30.15 "HgN/A
8:00 AM18 °FClear.No wind93%30.15 "Hg10 mi
7:00 AM16 °FClear.1 mph100%30.15 "Hg10 mi
6:30 AM14 °FClear.No wind92%30.15 "Hg10 mi
6:00 AM16 °FClear.No wind93%30.15 "Hg10 mi
5:30 AM16 °FClear.No wind93%30.15 "Hg10 mi
5:00 AM16 °FClear.No wind93%30.15 "Hg10 mi
4:30 AM16 °FClear.No wind93%30.15 "Hg10 mi
4:00 AM14 °FClear.No wind100%30.15 "Hg10 mi
3:30 AM14 °FClear.No wind92%30.15 "Hg10 mi
3:00 AM14 °FClear.1 mph92%30.15 "Hg10 mi
2:30 AM16 °FClear.No wind93%30.15 "Hg10 mi
2:00 AM16 °FClear.No wind93%30.15 "Hg10 mi
1:00 AM16 °FClear.No wind93%30.15 "Hg10 mi
12:30 AM16 °FClear.No wind93%30.15 "Hg10 mi
12:00 AM16 °FClear.No wind100%30.15 "Hg10 mi
11:30 PM
Thu, Nov 26
16 °FClear.No wind100%30.15 "Hg10 mi
11:00 PM18 °FClear.No wind93%30.12 "Hg10 mi
10:30 PM16 °FClear.No wind93%30.12 "Hg10 mi
10:00 PM18 °FClear.No wind93%30.12 "Hg10 mi
Weather by CustomWeather, © 2015

See weather overviewHow to use our weather pages